Regional Weather Roundup
Issued by NWS

Home | Current Version | Previous Version | Text Only | Print | Product List | Glossary Off
Versions: 1 2 3 4 5 6 7 8 9 10 11 12 13 14 15 16 17 18 19 20 21 22 23 24 25 26 27 28 29 30 31 32 33 34 35 36 37 38 39 40 41 42 43 44 45 46 47 48 49 50

000
ASUS43 KLOT 300709
RWRIL

ILLINOIS REGIONAL WEATHER ROUNDUP
NATIONAL WEATHER SERVICE CHICAGO/ROMEOVILLE IL
200 AM CDT TUE MAY 30 2017

NOTE: "FAIR" INDICATES FEW OR NO CLOUDS BELOW 12,000 FEET WITH NO
SIGNIFICANT WEATHER AND/OR OBSTRUCTIONS TO VISIBILITY.

* THESE STATIONS ARE NOT UNDER NWS QUALITY CONTROL. THEY ALSO MAY NOT
  REPORT WEATHER SUCH AS PRECIPITATION OR FOG.

ILZ001-002-007-009-015-016-024-300800-
NORTHWEST ILLINOIS

CITY           SKY/WX    TMP DP  RH WIND       PRES   REMARKS
MOLINE           N/A     57  46  66 MISG      29.95S
STERLING*      CLEAR     55  48  77 W7        29.94R
SAVANNA*       CLEAR     58  47  67 W6        29.94R
$$

ILZ003-004-008-010-011-017-018-300800-
NORTH CENTRAL ILLINOIS

CITY           SKY/WX    TMP DP  RH WIND       PRES   REMARKS
ROCKFORD       PTCLDY    55  48  77 W7        29.93R
FREEPORT*      CLEAR     53  46  76 SW6       29.94S
ROCHELLE*      CLEAR     53  47  81 W5        29.93S
DE KALB*       CLEAR     57  47  69 SW6       29.93R
PERU*          CLEAR     56  46  67 W6        29.95S
$$

ILZ005-006-012>014-019>023-300800-
NORTHEAST ILLINOIS

CITY           SKY/WX    TMP DP  RH WIND       PRES   REMARKS
CHICAGO-OHARE  PTCLDY    58  47  66 SW3       29.90S
CHICAGO-MIDWAY CLEAR     61  46  57 W7        29.90S
AURORA         MOCLDY    53  47  79 W7        29.92S
LANSING*       CLEAR     55  49  79 SW5       29.92R
JOLIET*        CLEAR     60  48  63 W3        29.93R
WAUKEGAN       CLEAR     54  51  90 SW3       29.88S
DUPAGE AIRPORT CLEAR     53  48  83 SW3       29.91R
KANKAKEE*      CLEAR     55  46  69 CALM      29.94S
WHEELING       CLEAR     58  48  69 SW3       29.91R
MORRIS*        CLEAR     55  46  72 CALM      29.92S
ROMEOVILLE*    PTCLDY    57  50  78 W8        29.92S
NORTHERLY ISL    N/A     56  51  84 CALM        N/A
$$

LMZ740>746-300800-
SOUTHERN LAKE MICHIGAN

STATION/POSITION SKY/WX   TEMP    WIND        PRES    VSBY  WAVE
                          AIR SEA DIR/SP/G                  HT/PER
                          (F)     (DEG/KT/KT) (MB)    (MI)  (FT/S)
WILMETTE HARBOR            55 53  230/  6/  6   N/A           1
HARRISON CRIB              59     160/  2/  2   N/A
BURNHAM HARBOR             56      CALM  /  4   N/A
CALUMET HARBOR                    240/  3/  5 1012.3R
BURNS HARBOR               61      CALM  /  2 1013.2S
MICHIGAN CITY              59     140/  3/  4   N/A
MICHIGAN CITY 6N           57 56  180/  4/  6   N/A           1
ST. JOSEPH                 59 60  210/  4/  6 1012.6          1/ 4
$$

ILZ025>027-034>036-040-047-049-050-058-095>099-300800-
WEST-CENTRAL ILLINOIS

CITY           SKY/WX    TMP DP  RH WIND       PRES   REMARKS
QUINCY         CLOUDY    61  46  57 W5        30.00S
GALESBURG*     CLEAR     55  46  70 W5          N/A
MACOMB*        CLEAR     55  46  72 W7        30.00S
JACKSONVILLE*  PTCLDY    60  49  68 SW6       29.98S
PITTSFIELD*    MOCLDY    62  50  64 W3        30.01S
$$

ILZ028>032-037-038-041>044-048-051>054-059>061-300800-
CENTRAL ILLINOIS

CITY           SKY/WX    TMP DP  RH WIND       PRES   REMARKS
PONTIAC        CLEAR     57  49  73 CALM      29.96R
BLOOMINGTON    CLEAR     56  45  66 SW7       29.98R
DECATUR        PTCLDY    59  49  69 W3        29.98S
PEORIA         CLEAR     58  45  62 CALM      29.97S
LACON*         PTCLDY    56  48  72 CALM      29.95S
LINCOLN*       CLEAR     64  45  50 CALM      29.97S
SPRINGFIELD    PTCLDY    58  52  80 SW3       29.98S
TAYLORVILLE    MOCLDY    59  54  82 CALM      29.99S
$$

ILZ033-039-045-046-055>057-062-063-300800-
EAST-CENTRAL ILLINOIS

CITY           SKY/WX    TMP DP  RH WIND       PRES   REMARKS
CHAMPAIGN      CLEAR     60  46  59 SW6       29.96F
RANTOUL*       CLEAR     61  47  61 SW6       29.96S
MATTOON        CLOUDY    62  52  69 W6        29.98R
PARIS*         CLEAR     59  54  82 W6        29.98S
$$

ILZ079-100>102-300800-
SOUTHWEST ILLINOIS

CITY           SKY/WX    TMP DP  RH WIND       PRES   REMARKS
ALTON          PTCLDY    59  55  87 CALM      30.00S
BELLEVILLE     CLEAR     60  59  96 CALM      30.01R
CAHOKIA*       PTCLDY    59  56  89 CALM      30.00S FOG
SPARTA*        CLEAR     61  58  89 CALM      30.01S
$$

ILZ064>066-069>071-074>076-080>082-084>086-088>090-092>094-300800-
SOUTH-CENTRAL ILLINOIS

CITY           SKY/WX    TMP DP  RH WIND       PRES   REMARKS
CARBONDALE     CLEAR     58  58 100 S3        30.01R
CAIRO*           N/A     66  64  94 CALM      30.01S
EFFINGHAM*     CLEAR     56  56 100 CALM      30.00S
MARION         CLEAR     61  61 100 CALM      30.02S
MT. VERNON     FOG       55  54  96 CALM      30.00S VSB 1/4
CENTRALIA*     MOCLDY    59  58  97 CALM      29.99S
SALEM*         CLOUDY    60  58  94 CALM      29.99S
METROPOLIS*    CLEAR     63  63  98 CALM      30.02S FOG
$$

ILZ067-068-072-073-078-083-087-091-300800-
SOUTHEAST ILLINOIS

CITY           SKY/WX    TMP DP  RH WIND       PRES   REMARKS
LAWRENCEVILLE  CLEAR     61  55  81 S6        30.00R
FLORA*         CLEAR     58  56  95 S3        29.99S
FAIRFIELD*     CLEAR     58  58  98 CALM      29.99S
HARRISBURG*    CLEAR     61  61 100 CALM      30.01F FOG
ROBINSON*      CLEAR     57  54  89 CALM      29.99S
CARMI*         CLEAR     59  59 100 S3        30.00S
$$

ABBREVIATIONS USED IN REMARKS
   TC - TEMPERATURE IN CELSIUS
  WCI - WIND CHILL INDEX
   HX - HEAT INDEX
  VSB - VISIBILITY
$$




USA.gov is the U.S. government's official web portal to all federal, state and local government web resources and services.